Thief River Falls, MN

1:45 AM CDT on June 25, 2017 (GMT -0500)
Thief River Falls Regional

Weather History for KTVF - October, 2011

Change the Weather History Date:

Saturday, October 22, 2011

  Actual Average Record
Temperature  
Mean Temperature 43 °F -  
Max Temperature 60 °F 45 °F 72 °F (1992)
Min Temperature 26 °F 31 °F 12 °F (1981)
Degree Days  
Heating Degree Days 22    
Moisture  
Dew Point 34 °F    
Average Humidity 68    
Maximum Humidity 93    
Minimum Humidity 42    
Precipitation  
Precipitation 0.00 in - - ()
Sea Level Pressure  
Sea Level Pressure 29.98 in    
Wind  
Wind Speed 6 mph (South)    
Max Wind Speed 21 mph    
Max Gust Speed 29 mph    
Visibility 9 miles    
Events      
Averages and records for this station are not official NWS values.
T = Trace of Precipitation, MM = Missing Value Source: NWS Daily Summary

Daily Weather History Graph

Daily Weather History Graph

Search for Another Location

Airport or City:

Trip Planner

Search our weather history database for the weather conditions in past years. The results will help you decide how hot, cold, wet, or windy it might be!

Date:

Astronomy

Oct. 22, 2011 Rise Set
Actual Time 7:54 AM CDT 6:23 PM CDT
Civil Twilight 7:22 AM CDT 6:55 PM CDT
Nautical Twilight 6:46 AM CDT 7:31 PM CDT
Astronomical Twilight 6:10 AM CDT 8:07 PM CDT
Moon 2:31 AM CDT (10/22) 3:59 PM CDT (10/22)
Length of Visible Light 11h 32m
Length of Day
10h 29m
Waning Crescent, 23% of the Moon is Illuminated
Oct 22
Waning Crescent
Oct 26
New
Nov 2
First Quarter
Nov 10
Full
Nov 18
Last Quarter

Hourly Weather History & Observations

Time (CDT) Temp. Windchill Dew Point Humidity Pressure Visibility Wind Dir Wind Speed Gust Speed Precip Events Conditions
12:15 AM 35.6 °F 31.7 °F 30.2 °F 81% 30.05 in 10.0 mi West 4.6 mph - N/A   Clear
12:35 AM 37.4 °F 34.9 °F 30.2 °F 75% 30.05 in 10.0 mi West 3.5 mph - N/A   Clear
12:55 AM 35.6 °F - 30.2 °F 81% 30.05 in 10.0 mi Calm Calm - N/A   Clear
1:15 AM 35.6 °F - 30.2 °F 81% 30.05 in 10.0 mi Calm Calm - N/A   Clear
1:35 AM 33.8 °F - 30.2 °F 87% 30.05 in 10.0 mi Calm Calm - N/A   Clear
2:15 AM 33.8 °F - 28.4 °F 81% 30.06 in 10.0 mi Calm Calm - N/A   Clear
2:35 AM 33.8 °F 30.8 °F 28.4 °F 81% 30.06 in 10.0 mi West 3.5 mph - N/A   Clear
2:55 AM 32.0 °F 28.7 °F 28.4 °F 87% 30.06 in 3.0 mi WSW 3.5 mph - N/A   Clear
3:15 AM 33.8 °F - 28.4 °F 81% 30.06 in 10.0 mi Calm Calm - N/A   Clear
3:35 AM 32.0 °F - 26.6 °F 80% 30.06 in 10.0 mi Calm Calm - N/A   Clear
3:55 AM 33.8 °F - 28.4 °F 81% 30.06 in 10.0 mi Calm Calm - N/A   Clear
4:15 AM 32.0 °F - 28.4 °F 87% 30.06 in 10.0 mi Calm Calm - N/A   Clear
4:35 AM 32.0 °F - 28.4 °F 87% 30.06 in 10.0 mi Calm Calm - N/A   Clear
4:55 AM 32.0 °F - 28.4 °F 87% 30.07 in 8.0 mi Calm Calm - N/A   Clear
5:15 AM 30.2 °F - 28.4 °F 93% 30.07 in 3.0 mi Calm Calm - N/A   Clear
5:35 AM 32.0 °F - 30.2 °F 93% 30.07 in 0.8 mi Calm Calm - N/A   Unknown
5:55 AM 28.4 °F - 26.6 °F 93% 30.07 in 1.0 mi Calm Calm - N/A   Clear
6:35 AM 28.4 °F - 24.8 °F 86% 30.08 in 5.0 mi Calm Calm - N/A   Clear
6:55 AM 28.4 °F - 26.6 °F 93% 30.08 in 5.0 mi Calm Calm - N/A   Clear
7:15 AM 28.4 °F - 24.8 °F 86% 30.09 in 10.0 mi Calm Calm - N/A   Clear
7:35 AM 28.4 °F 23.3 °F 26.6 °F 93% 30.08 in 5.0 mi ESE 4.6 mph - N/A   Clear
7:55 AM 28.4 °F 24.6 °F 24.8 °F 86% 30.08 in 4.0 mi ESE 3.5 mph - N/A   Clear
8:15 AM 26.6 °F 21.2 °F 24.8 °F 93% 30.09 in 5.0 mi SE 4.6 mph - N/A   Clear
8:35 AM 26.6 °F 22.6 °F 23.0 °F 86% 30.09 in 7.0 mi SSE 3.5 mph - N/A   Clear
8:55 AM 30.2 °F 24.3 °F 28.4 °F 93% 30.09 in 5.0 mi SE 5.8 mph - N/A   Clear
9:15 AM 33.8 °F 29.6 °F 30.2 °F 87% 30.09 in 6.0 mi SE 4.6 mph - N/A   Clear
9:35 AM 35.6 °F 31.7 °F 33.8 °F 93% 30.09 in 9.0 mi SE 4.6 mph - N/A   Clear
9:55 AM 37.4 °F 32.8 °F 33.8 °F 87% 30.08 in 10.0 mi SE 5.8 mph - N/A   Clear
10:35 AM 44.6 °F 40.7 °F 37.4 °F 76% 30.07 in 10.0 mi SSE 6.9 mph - N/A   Clear
10:55 AM 46.4 °F 42.4 °F 39.2 °F 76% 30.07 in 10.0 mi SSE 8.1 mph - N/A   Clear
11:15 AM 48.2 °F - 39.2 °F 71% 30.07 in 10.0 mi South 10.4 mph - N/A   Clear
11:35 AM 50.0 °F - 37.4 °F 62% 30.06 in 10.0 mi SSE 11.5 mph - N/A   Clear
11:55 AM 51.8 °F - 37.4 °F 58% 30.04 in 10.0 mi SSE 12.7 mph - N/A   Clear
12:15 PM 53.6 °F - 37.4 °F 54% 30.04 in 10.0 mi South 11.5 mph - N/A   Clear
12:35 PM 55.4 °F - 37.4 °F 51% 30.03 in 10.0 mi South 12.7 mph - N/A   Clear
1:15 PM 57.2 °F - 37.4 °F 48% 30.01 in 10.0 mi South 16.1 mph 20.7 mph N/A   Clear
1:35 PM 57.2 °F - 37.4 °F 48% 29.99 in 10.0 mi SSW 17.3 mph 23.0 mph N/A   Clear
1:55 PM 57.2 °F - 37.4 °F 48% 29.98 in 10.0 mi South 17.3 mph 21.9 mph N/A   Clear
2:15 PM 59.0 °F - 37.4 °F 45% 29.97 in 10.0 mi SSW 17.3 mph - N/A   Clear
2:35 PM 59.0 °F - 37.4 °F 45% 29.96 in 10.0 mi South 17.3 mph 21.9 mph N/A   Clear
2:55 PM 60.8 °F - 37.4 °F 42% 29.95 in 10.0 mi SSW 20.7 mph 24.2 mph N/A   Clear
3:15 PM 60.8 °F - 37.4 °F 42% 29.94 in 10.0 mi South 17.3 mph 25.3 mph N/A   Mostly Cloudy
3:35 PM 60.8 °F - 37.4 °F 42% 29.93 in 10.0 mi South 18.4 mph 28.8 mph N/A   Mostly Cloudy
3:55 PM 60.8 °F - 37.4 °F 42% 29.92 in 10.0 mi SSW 20.7 mph 25.3 mph N/A   Scattered Clouds
4:15 PM 59.0 °F - 37.4 °F 45% 29.91 in 10.0 mi SSW 19.6 mph 23.0 mph N/A   Partly Cloudy
4:35 PM 59.0 °F - 37.4 °F 45% 29.90 in 10.0 mi South 16.1 mph 25.3 mph N/A   Mostly Cloudy
4:55 PM 59.0 °F - 39.2 °F 48% 29.89 in 10.0 mi South 17.3 mph 25.3 mph N/A   Mostly Cloudy
5:15 PM 59.0 °F - 37.4 °F 45% 29.88 in 10.0 mi South 17.3 mph - N/A   Scattered Clouds
5:35 PM 57.2 °F - 39.2 °F 51% 29.87 in 10.0 mi South 17.3 mph 23.0 mph N/A   Clear
5:55 PM 57.2 °F - 37.4 °F 48% 29.85 in 10.0 mi South 13.8 mph - N/A   Clear
6:15 PM 55.4 °F - 37.4 °F 51% 29.85 in 10.0 mi South 12.7 mph - N/A   Clear
6:35 PM 55.4 °F - 37.4 °F 51% 29.84 in 10.0 mi South 13.8 mph - N/A   Clear
6:55 PM 55.4 °F - 37.4 °F 51% 29.83 in 10.0 mi South 13.8 mph - N/A   Scattered Clouds
7:15 PM 55.4 °F - 37.4 °F 51% 29.82 in 10.0 mi South 12.7 mph - N/A   Overcast
7:35 PM 53.6 °F - 39.2 °F 58% 29.81 in 10.0 mi South 11.5 mph - N/A   Overcast
7:55 PM 53.6 °F - 39.2 °F 58% 29.81 in 10.0 mi South 17.3 mph - N/A   Mostly Cloudy
8:15 PM 53.6 °F - 39.2 °F 58% 29.80 in 10.0 mi South 15.0 mph - N/A   Overcast
8:35 PM 53.6 °F - 39.2 °F 58% 29.79 in 10.0 mi South 15.0 mph - N/A   Overcast
8:55 PM 53.6 °F - 39.2 °F 58% 29.78 in 10.0 mi South 15.0 mph - N/A   Mostly Cloudy
9:15 PM 53.6 °F - 37.4 °F 54% 29.78 in 10.0 mi South 12.7 mph - N/A   Mostly Cloudy
9:35 PM 53.6 °F - 37.4 °F 54% 29.78 in 10.0 mi South 13.8 mph - N/A   Overcast
9:55 PM 53.6 °F - 39.2 °F 58% 29.77 in 10.0 mi SSW 17.3 mph - N/A   Mostly Cloudy
10:15 PM 53.6 °F - 39.2 °F 58% 29.77 in 10.0 mi SSW 13.8 mph 20.7 mph N/A   Partly Cloudy
10:35 PM 53.6 °F - 39.2 °F 58% 29.77 in 10.0 mi SSW 12.7 mph - N/A   Clear
10:55 PM 51.8 °F - 39.2 °F 62% 29.76 in 10.0 mi SSW 12.7 mph - N/A   Clear
11:15 PM 51.8 °F - 39.2 °F 62% 29.76 in 10.0 mi SSW 13.8 mph - N/A   Clear
11:35 PM 48.2 °F - 39.2 °F 71% 29.76 in 10.0 mi SW 6.9 mph - N/A   Clear
11:55 PM 48.2 °F - 39.2 °F 71% 29.75 in 10.0 mi SSW 8.1 mph - N/A   Clear